Regional Weather Roundup
Issued by NWS

Home | Current Version | Previous Version | Graphics & Text | Print | Product List | Glossary On
Versions: 1 2 3 4 5 6 7 8 9 10 11 12 13 14 15 16 17 18 19 20 21 22 23 24 25 26 27 28 29 30 31 32 33 34 35 36 37 38 39 40 41 42 43 44 45 46 47 48 49 50
000
ASUS43 KLMK 202110
RWRKY
KENTUCKY REGIONAL WEATHER ROUNDUP
NATIONAL WEATHER SERVICE LOUISVILLE KY
500 PM EDT MON OCT 20 2014

NOTE "FAIR" INDICATES FEW OR NO CLOUDS BELOW 12,000 FEET
WITH NO SIGNIFICANT WEATHER AND/OR OBSTRUCTIONS TO VISIBILITY.

KYZ001>023-026-027-061>063-070>075-202200-
WESTERN AND SOUTH CENTRAL KENTUCKY

CITY           SKY/WX    TMP DP  RH WIND       PRES   REMARKS
PADUCAH        SUNNY     73  54  51 SW12      29.93F
HENDERSON      SUNNY     73  52  46 SW15G21   29.89F
OWENSBORO      SUNNY     71  54  55 W15G22    29.90F
HOPKINSVILLE   SUNNY     69  52  55 SW13      29.96F
BOWLING GREEN  SUNNY     68  50  52 SW13      29.96F
GLASGOW        MOSUNNY   65  49  56 SW9       29.96F
$$

KYZ024-025-028>034-038-045-046-053-202200-
NORTH CENTRAL KENTUCKY

CITY           SKY/WX    TMP DP  RH WIND       PRES   REMARKS
LOUISVILLE/SDF CLOUDY    68  51  54 SW16      29.88S
LOUISVILLE/LOU CLOUDY    67  51  56 W10       29.89S
FORT KNOX      MOSUNNY   67  52  57 S15       29.89S
$$

KYZ035>037-039>044-047>052-055>060-089>105-202200-
NORTHEAST KENTUCKY

CITY           SKY/WX    TMP DP  RH WIND       PRES   REMARKS
LEXINGTON      MOSUNNY   64  48  56 SW16G23   29.90F
COVINGTON      PTSUNNY   63  48  58 SW13G21   29.87S
FRANKFORT      SUNNY     64  49  57 SW17G24   29.88F
$$

KYZ054-064>069-076>088-106>120-202200-
SOUTHEAST KENTUCKY

CITY           SKY/WX    TMP DP  RH WIND       PRES   REMARKS
JACKSON        CLOUDY    56  48  74 VRB3      29.96F
LONDON         CLOUDY    63  47  55 W9        29.97S
SOMERSET       CLOUDY    61  45  55 W12       29.98F
MIDDLESBORO    CLOUDY    63  49  60 SW5       29.99R
MONTICELLO     PTCLDY    65  48  53 SW12G20   29.99F
$$



USA.gov is the U.S. government's official web portal to all federal, state and local government web resources and services.